Flag for Norway Weather past 2 weeks in Mosjøen, Norway

Now
51 °F

Cool.


Feels Like: 50 °F
Forecast: 44 / 58 °F
Wind: 3 mph from Southwest

Location: Mosjoen Kjaerstad

Current Time: May 29, 2015 at 10:57:53 PM

Latest Report: May 29, 2015 at 10:00 PM


Visibility: N/A

Pressure: 29.47 "Hg

Humidity: 61%

Dew point: 38 °F

Location of MosjøenLocation

Historic Weather in Mosjøen — Graph

°F

Mosjøen temperature yesterday

Maximum temperature yesterday: 53 °F (at 7:00 PM)
Minimum temperature yesterday: 43 °F (at 2:00 AM)
Average temperature yesterday: 49 °F

Past Weeks' High & Low Weather Summary

 TemperatureHumidityPressure
High55 °F (May 29, 6:00 PM)96% (May 27, 6:00 AM)29.96 "Hg (May 27, 6:00 AM)
Low31 °F (May 16, 5:00 AM)33% (May 18, 3:00 PM)29.41 "Hg (May 29, 1:00 PM)
Average45 °F68%29.74 "Hg
* Reported May 14 9:00 PM — May 29 9:00 PM, Mosjøen, Weather by CustomWeather, © 2015

Note: Actual official high and low records may vary slightly from our data, if they occured in-between our weather recording intervals... More about our weather records

Advertising

Mosjøen weather history for previous 24 hours

 ConditionsComfort  
Time TempWeatherWind HumidityBarometerVisibility
9:00 PM
Fri, May 29
52 °FCool.3 mph56%29.44 "HgN/A
8:00 PM54 °FCool.3 mph53%29.41 "HgN/A
7:00 PM54 °FCool.5 mph53%29.41 "HgN/A
6:00 PM55 °FCool.5 mph51%29.41 "HgN/A
5:00 PM52 °FCool.5 mph59%29.41 "HgN/A
4:00 PM50 °FCool.2 mph63%29.44 "HgN/A
3:00 PM51 °FCool.3 mph68%29.44 "HgN/A
2:00 PM52 °FCool.5 mph62%29.41 "HgN/A
1:00 PM55 °FCool.1 mph50%29.41 "HgN/A
12:00 PM54 °FCool.3 mph53%29.44 "HgN/A
11:00 AM55 °FCool.5 mph50%29.44 "HgN/A
10:00 AM53 °FCool.1 mph58%29.44 "HgN/A
9:00 AM51 °FCool.3 mph58%29.44 "HgN/A
8:00 AM47 °FCool.1 mph72%29.47 "HgN/A
7:00 AM46 °FCool.1 mph72%29.47 "HgN/A
6:00 AM42 °FQuite cool.1 mph79%29.50 "HgN/A
5:00 AM37 °FChilly.2 mph92%29.50 "HgN/A
4:00 AM35 °FChilly.1 mph91%29.54 "HgN/A
3:00 AM35 °FChilly.1 mph91%29.54 "HgN/A
2:00 AM38 °FChilly.1 mph88%29.55 "HgN/A
12:00 AM42 °FQuite cool.No wind80%29.56 "HgN/A
10:00 PM
Thu, May 28
49 °FCool.2 mph61%29.57 "HgN/A
Weather by CustomWeather, © 2015

See weather overviewHow to use our weather pages